When you browse on this site, cookies collect data to enhance your experience and personalize the content and advertising you see.
Visit our Privacy Policy to learn more. By continuing to use the site, you agree to this use of cookies and data.
  • In Latvia
  • List of Countries
  • For 7 days
  • Water Temperature
  • Weather Map
  • Weather Widgets
  • user-avatar
    Login

    Hourly Weather Canberra

    Today, 19 August, Monday

    Time Temperature Precipitation Wind Pressure Humidity
    00:00 +3°C° 0.7 mm 5 mps 704 mmHg 91%
    01:00 +3°C° 0.7 mm 5 mps 705 mmHg 90%
    02:00 +2°C° 0 mm 5 mps 705 mmHg 90%
    03:00 +1°C° 0 mm 4 mps 705 mmHg 90%
    04:00 +1°C° 0 mm 4 mps 704 mmHg 90%
    05:00 0°C° 0 mm 4 mps 705 mmHg 91%
    06:00 0°C° 0 mm 4 mps 706 mmHg 91%
    07:00 0°C° 0 mm 4 mps 706 mmHg 92%
    08:00 +1°C° 0.1 mm 5 mps 707 mmHg 88%
    09:00 +1°C° 0.1 mm 5 mps 707 mmHg 84%
    10:00 +3°C° 0 mm 5 mps 708 mmHg 81%
    11:00 +3°C° 0.1 mm 5 mps 708 mmHg 73%
    12:00 +4°C° 0.1 mm 6 mps 708 mmHg 65%
    13:00 +4°C° 0.1 mm 7 mps 709 mmHg 58%
    14:00 +4°C° 0 mm 7 mps 709 mmHg 58%
    15:00 +4°C° 0 mm 6 mps 709 mmHg 59%
    16:00 +4°C° 0 mm 6 mps 709 mmHg 59%
    17:00 +2°C° 0 mm 5 mps 710 mmHg 67%
    18:00 +1°C° 0 mm 4 mps 710 mmHg 74%
    19:00 0°C° 0 mm 4 mps 711 mmHg 82%
    20:00 0°C° 0 mm 4 mps 711 mmHg 84%
    21:00 0°C° 0 mm 4 mps 712 mmHg 85%
    22:00 0°C° 0 mm 4 mps 712 mmHg 87%
    23:00 0°C° 0 mm 4 mps 713 mmHg 88%

    Tomorrow, 20 August, Tuesday

    Time Temperature Precipitation Wind Pressure Humidity
    00:00 0°C° 0 mm 4 mps 713 mmHg 89%
    01:00 0°C° 0 mm 4 mps 713 mmHg 89%
    02:00 0°C° 0 mm 4 mps 713 mmHg 90%
    03:00 0°C° 0 mm 4 mps 713 mmHg 91%
    04:00 0°C° 0 mm 4 mps 712 mmHg 92%
    05:00 0°C° 0 mm 4 mps 712 mmHg 91%
    06:00 0°C° 0 mm 4 mps 713 mmHg 91%
    07:00 0°C° 0 mm 4 mps 713 mmHg 90%
    08:00 +3°C° 0 mm 4 mps 713 mmHg 81%
    09:00 +5°C° 0 mm 5 mps 713 mmHg 72%
    10:00 +7°C° 0 mm 5 mps 714 mmHg 64%
    11:00 +7°C° 0 mm 6 mps 713 mmHg 62%
    12:00 +8°C° 0 mm 6 mps 713 mmHg 60%
    13:00 +9°C° 0 mm 6 mps 712 mmHg 58%
    14:00 +9°C° 0 mm 6 mps 712 mmHg 59%
    15:00 +8°C° 0 mm 6 mps 712 mmHg 61%
    16:00 +8°C° 0 mm 6 mps 711 mmHg 63%
    17:00 +7°C° 0 mm 6 mps 711 mmHg 69%
    18:00 +5°C° 0 mm 6 mps 711 mmHg 76%
    19:00 +5°C° 0 mm 5 mps 711 mmHg 82%
    20:00 +5°C° 0 mm 6 mps 711 mmHg 82%
    21:00 +5°C° 0 mm 6 mps 711 mmHg 82%
    22:00 +5°C° 0 mm 7 mps 711 mmHg 81%
    23:00 +5°C° 0 mm 7 mps 710 mmHg 80%

    Day after tomorrow, 21 August, Wednesday

    Time Temperature Precipitation Wind Pressure Humidity
    00:00 +6°C° 0 mm 7 mps 710 mmHg 78%
    01:00 +6°C° 0 mm 7 mps 709 mmHg 77%
    02:00 +6°C° 0 mm 7 mps 709 mmHg 77%
    03:00 +5°C° 0 mm 7 mps 708 mmHg 77%
    04:00 +5°C° 0 mm 6 mps 707 mmHg 77%
    05:00 +5°C° 0 mm 6 mps 707 mmHg 77%
    06:00 +5°C° 0 mm 6 mps 707 mmHg 77%
    07:00 +5°C° 0 mm 6 mps 708 mmHg 77%
    08:00 +7°C° 0 mm 6 mps 708 mmHg 72%
    09:00 +9°C° 0 mm 7 mps 708 mmHg 67%
    10:00 +10°C° 0 mm 7 mps 708 mmHg 62%
    11:00 +10°C° 0 mm 8 mps 707 mmHg 61%
    12:00 +10°C° 0 mm 8 mps 707 mmHg 59%
    13:00 +11°C° 0 mm 8 mps 707 mmHg 58%
    14:00 +10°C° 0 mm 8 mps 707 mmHg 58%
    15:00 +10°C° 0 mm 7 mps 706 mmHg 58%
    16:00 +9°C° 0 mm 7 mps 706 mmHg 58%
    17:00 +8°C° 0 mm 6 mps 707 mmHg 63%
    18:00 +7°C° 0 mm 5 mps 707 mmHg 69%
    19:00 +5°C° 0 mm 5 mps 708 mmHg 74%
    20:00 +5°C° 0 mm 4 mps 708 mmHg 74%
    21:00 +4°C° 0 mm 4 mps 708 mmHg 73%
    22:00 +4°C° 0 mm 4 mps 708 mmHg 73%
    23:00 +4°C° 0 mm 4 mps 708 mmHg 72%

    22 August, Thursday

    Time Temperature Precipitation Wind Pressure Humidity
    00:00 +3°C° 0 mm 4 mps 708 mmHg 71%
    01:00 +3°C° 0 mm 4 mps 708 mmHg 71%
    02:00 +3°C° 0 mm 4 mps 707 mmHg 74%
    03:00 +3°C° 0 mm 4 mps 707 mmHg 77%
    04:00 +1°C° 0 mm 4 mps 707 mmHg 80%
    05:00 +2°C° 0 mm 3 mps 707 mmHg 81%
    06:00 +3°C° 0 mm 3 mps 707 mmHg 82%
    07:00 +3°C° 0 mm 3 mps 707 mmHg 83%
    08:00 +5°C° 0 mm 4 mps 707 mmHg 73%
    09:00 +8°C° 0 mm 5 mps 708 mmHg 63%
    10:00 +10°C° 0 mm 6 mps 708 mmHg 53%
    11:00 +11°C° 0 mm 6 mps 708 mmHg 50%
    12:00 +13°C° 0 mm 6 mps 708 mmHg 46%
    13:00 +14°C° 0 mm 6 mps 708 mmHg 42%
    14:00 +13°C° 0 mm 5 mps 708 mmHg 42%
    15:00 +13°C° 0 mm 5 mps 708 mmHg 41%
    16:00 +13°C° 0 mm 4 mps 708 mmHg 41%
    17:00 +10°C° 0 mm 3 mps 709 mmHg 49%
    18:00 +8°C° 0 mm 2 mps 710 mmHg 56%
    19:00 +6°C° 0 mm 1 mps 710 mmHg 64%
    20:00 +5°C° 0 mm 1 mps 711 mmHg 68%
    21:00 +4°C° 0 mm 1 mps 711 mmHg 72%
    22:00 +3°C° 0 mm 1 mps 712 mmHg 75%
    23:00 +3°C° 0 mm 1 mps 712 mmHg 78%

    23 August, Friday

    Time Temperature Precipitation Wind Pressure Humidity
    00:00 +2°C° 0 mm 1 mps 712 mmHg 80%
    01:00 +1°C° 0 mm 1 mps 712 mmHg 82%
    02:00 +1°C° 0 mm 1 mps 712 mmHg 82%
    03:00 +1°C° 0 mm 1 mps 712 mmHg 81%
    04:00 0°C° 0 mm 1 mps 712 mmHg 81%
    05:00 0°C° 0 mm 1 mps 712 mmHg 77%
    06:00 0°C° 0 mm 1 mps 713 mmHg 74%
    07:00 0°C° 0 mm 0 mps 713 mmHg 71%
    08:00 +3°C° 0 mm 0 mps 713 mmHg 60%
    09:00 +7°C° 0 mm 0 mps 714 mmHg 49%
    10:00 +11°C° 0 mm 1 mps 714 mmHg 39%
    11:00 +13°C° 0 mm 1 mps 713 mmHg 38%
    12:00 +14°C° 0 mm 2 mps 713 mmHg 38%
    13:00 +14°C° 0 mm 3 mps 712 mmHg 38%
    14:00 +14°C° 0 mm 3 mps 712 mmHg 43%
    15:00 +13°C° 0 mm 4 mps 712 mmHg 47%
    16:00 +13°C° 0 mm 4 mps 712 mmHg 52%
    17:00 +10°C° 0 mm 3 mps 712 mmHg 61%
    18:00 +8°C° 0 mm 3 mps 712 mmHg 71%
    19:00 +5°C° 0 mm 2 mps 712 mmHg 80%
    20:00 +4°C° 0 mm 2 mps 712 mmHg 83%
    21:00 +4°C° 0 mm 2 mps 711 mmHg 85%
    22:00 +3°C° 0 mm 2 mps 711 mmHg 87%
    23:00 +3°C° 0 mm 2 mps 711 mmHg 88%

    24 August, Saturday

    Time Temperature Precipitation Wind Pressure Humidity
    00:00 +2°C° 0 mm 2 mps 711 mmHg 88%
    01:00 +2°C° 0 mm 2 mps 710 mmHg 89%
    02:00 +2°C° 0 mm 2 mps 710 mmHg 90%
    03:00 +2°C° 0 mm 2 mps 710 mmHg 91%
    04:00 +1°C° 0 mm 2 mps 710 mmHg 93%
    05:00 +1°C° 0 mm 2 mps 710 mmHg 93%
    06:00 +1°C° 0 mm 2 mps 710 mmHg 94%
    07:00 +1°C° 0 mm 2 mps 710 mmHg 95%
    08:00 +4°C° 0 mm 2 mps 711 mmHg 84%
    09:00 +7°C° 0 mm 3 mps 711 mmHg 74%
    10:00 +10°C° 0 mm 4 mps 711 mmHg 64%
    11:00 +12°C° 0 mm 4 mps 711 mmHg 60%
    12:00 +13°C° 0 mm 4 mps 710 mmHg 55%
    13:00 +14°C° 0 mm 5 mps 710 mmHg 51%
    14:00 +14°C° 0 mm 4 mps 710 mmHg 53%
    15:00 +13°C° 0 mm 4 mps 709 mmHg 55%
    16:00 +13°C° 0 mm 4 mps 709 mmHg 56%
    17:00 +10°C° 0 mm 3 mps 709 mmHg 66%
    18:00 +8°C° 0 mm 2 mps 710 mmHg 77%
    19:00 +6°C° 0 mm 2 mps 710 mmHg 87%
    20:00 +7°C° 0 mm 1 mps 710 mmHg 88%
    21:00 +6°C° 0 mm 1 mps 710 mmHg 89%
    22:00 +4°C° 0 mm 0 mps 710 mmHg 90%
    23:00 +4°C° 0 mm 0 mps 710 mmHg 90%
    Show more